iso_date,epoch_date,Year,Hour,Min,DOY,POS_DOY,Lat,Lon,BP,Ts,Ta,has_bp,has_ts,has_ta,BuoyID,Buoy_Type,Buoy_Owner,Logistics,Hemisphere
2021-09-20T16:00:02Z,1632153603,2021,16,0,263.6667,263.6667,66.173,-18.895,-999.00,9.49,-999.0,no,yes,no,300234066215860,SVPGHI,AOML,UNKNOWN,North
2021-09-20T16:59:57Z,1632157197,2021,17,0,263.7083,263.7083,66.173,-18.894,-999.00,9.49,-999.0,no,yes,no,300234066215860,SVPGHI,AOML,UNKNOWN,North
2021-09-20T18:00:00Z,1632160800,2021,18,0,263.75,263.75,66.173,-18.892,-999.00,9.47,-999.0,no,yes,no,300234066215860,SVPGHI,AOML,UNKNOWN,North
2021-09-20T19:00:02Z,1632164403,2021,19,0,263.7917,263.7917,66.174,-18.893,-999.00,9.42,-999.0,no,yes,no,300234066215860,SVPGHI,AOML,UNKNOWN,North
2021-09-20T19:59:57Z,1632167997,2021,20,0,263.8333,263.8333,66.175,-18.896,-999.00,9.25,-999.0,no,yes,no,300234066215860,SVPGHI,AOML,UNKNOWN,North
2021-09-20T21:00:00Z,1632171600,2021,21,0,263.875,263.875,66.174,-18.894,-999.00,9.22,-999.0,no,yes,no,300234066215860,SVPGHI,AOML,UNKNOWN,North
2021-09-20T22:00:02Z,1632175203,2021,22,0,263.9167,263.9167,66.174,-18.896,-999.00,9.07,-999.0,no,yes,no,300234066215860,SVPGHI,AOML,UNKNOWN,North
2021-09-20T22:59:57Z,1632178797,2021,23,0,263.9583,263.9583,66.174,-18.896,-999.00,9.1,-999.0,no,yes,no,300234066215860,SVPGHI,AOML,UNKNOWN,North
2021-09-21T00:00:00Z,1632182400,2021,0,0,264.0,264.0,66.174,-18.896,-999.00,9.17,-999.0,no,yes,no,300234066215860,SVPGHI,AOML,UNKNOWN,North
2021-09-21T01:00:02Z,1632186003,2021,1,0,264.0417,264.0417,66.174,-18.896,-999.00,9.09,-999.0,no,yes,no,300234066215860,SVPGHI,AOML,UNKNOWN,North
2021-09-21T01:59:57Z,1632189597,2021,2,0,264.0833,264.0833,66.175,-18.895,-999.00,8.89,-999.0,no,yes,no,300234066215860,SVPGHI,AOML,UNKNOWN,North
2021-09-21T03:02:00Z,1632193321,2021,3,2,264.1264,264.1264,66.174,-18.896,-999.00,8.76,-999.0,no,yes,no,300234066215860,SVPGHI,AOML,UNKNOWN,North
2021-09-21T04:00:02Z,1632196803,2021,4,0,264.1667,264.1667,66.174,-18.896,-999.00,9.07,-999.0,no,yes,no,300234066215860,SVPGHI,AOML,UNKNOWN,North
2021-09-21T04:59:57Z,1632200397,2021,5,0,264.2083,264.2083,66.174,-18.896,-999.00,9.24,-999.0,no,yes,no,300234066215860,SVPGHI,AOML,UNKNOWN,North
2021-09-21T06:00:00Z,1632204000,2021,6,0,264.25,264.25,66.173,-18.897,-999.00,9.22,-999.0,no,yes,no,300234066215860,SVPGHI,AOML,UNKNOWN,North
2021-09-21T07:00:02Z,1632207603,2021,7,0,264.2917,264.2917,66.174,-18.896,-999.00,9.3,-999.0,no,yes,no,300234066215860,SVPGHI,AOML,UNKNOWN,North
2021-09-21T07:59:57Z,1632211197,2021,8,0,264.3333,264.3333,66.174,-18.896,-999.00,9.33,-999.0,no,yes,no,300234066215860,SVPGHI,AOML,UNKNOWN,North
2021-09-21T09:00:00Z,1632214800,2021,9,0,264.375,264.375,66.175,-18.896,-999.00,9.32,-999.0,no,yes,no,300234066215860,SVPGHI,AOML,UNKNOWN,North
2021-09-21T10:03:56Z,1632218636,2021,10,4,264.4194,264.4194,66.176,-18.898,-999.00,9.25,-999.0,no,yes,no,300234066215860,SVPGHI,AOML,UNKNOWN,North
2021-09-21T10:59:57Z,1632221997,2021,11,0,264.4583,264.4583,66.174,-18.895,-999.00,9.22,-999.0,no,yes,no,300234066215860,SVPGHI,AOML,UNKNOWN,North
2021-09-21T12:00:00Z,1632225600,2021,12,0,264.5,264.5,66.176,-18.894,-999.00,9.27,-999.0,no,yes,no,300234066215860,SVPGHI,AOML,UNKNOWN,North
2021-09-21T13:00:02Z,1632229203,2021,13,0,264.5417,264.5417,66.174,-18.896,-999.00,9.31,-999.0,no,yes,no,300234066215860,SVPGHI,AOML,UNKNOWN,North
2021-09-21T13:59:57Z,1632232797,2021,14,0,264.5833,264.5833,66.173,-18.896,-999.00,9.34,-999.0,no,yes,no,300234066215860,SVPGHI,AOML,UNKNOWN,North
2021-09-21T15:00:00Z,1632236400,2021,15,0,264.625,264.625,66.173,-18.895,-999.00,9.13,-999.0,no,yes,no,300234066215860,SVPGHI,AOML,UNKNOWN,North
2021-09-21T16:00:02Z,1632240003,2021,16,0,264.6667,264.6667,66.173,-18.893,-999.00,9.07,-999.0,no,yes,no,300234066215860,SVPGHI,AOML,UNKNOWN,North
2021-09-21T16:59:57Z,1632243597,2021,17,0,264.7083,264.7083,66.173,-18.891,-999.00,9.24,-999.0,no,yes,no,300234066215860,SVPGHI,AOML,UNKNOWN,North
2021-09-21T18:02:00Z,1632247321,2021,18,2,264.7514,264.7514,66.174,-18.894,-999.00,9.31,-999.0,no,yes,no,300234066215860,SVPGHI,AOML,UNKNOWN,North
2021-09-21T19:00:02Z,1632250803,2021,19,0,264.7917,264.7917,66.174,-18.896,-999.00,9.27,-999.0,no,yes,no,300234066215860,SVPGHI,AOML,UNKNOWN,North
2021-09-21T19:59:57Z,1632254397,2021,20,0,264.8333,264.8333,66.174,-18.896,-999.00,9.24,-999.0,no,yes,no,300234066215860,SVPGHI,AOML,UNKNOWN,North
2021-09-21T21:00:00Z,1632258000,2021,21,0,264.875,264.875,66.174,-18.896,-999.00,9.25,-999.0,no,yes,no,300234066215860,SVPGHI,AOML,UNKNOWN,North
2021-09-21T22:00:02Z,1632261603,2021,22,0,264.9167,264.9167,66.174,-18.896,-999.00,9.18,-999.0,no,yes,no,300234066215860,SVPGHI,AOML,UNKNOWN,North
2021-09-21T22:59:57Z,1632265197,2021,23,0,264.9583,264.9583,66.173,-18.896,-999.00,9.13,-999.0,no,yes,no,300234066215860,SVPGHI,AOML,UNKNOWN,North
2021-09-22T00:00:00Z,1632268800,2021,0,0,265.0,265.0,66.173,-18.896,-999.00,9.12,-999.0,no,yes,no,300234066215860,SVPGHI,AOML,UNKNOWN,North
2021-09-22T01:00:02Z,1632272403,2021,1,0,265.0417,265.0417,66.173,-18.896,-999.00,9.13,-999.0,no,yes,no,300234066215860,SVPGHI,AOML,UNKNOWN,North
2021-09-22T01:59:57Z,1632275997,2021,2,0,265.0833,265.0833,66.173,-18.897,-999.00,9.05,-999.0,no,yes,no,300234066215860,SVPGHI,AOML,UNKNOWN,North
2021-09-22T03:01:00Z,1632279660,2021,3,1,265.1257,265.1257,66.173,-18.896,-999.00,8.63,-999.0,no,yes,no,300234066215860,SVPGHI,AOML,UNKNOWN,North
2021-09-22T04:00:02Z,1632283203,2021,4,0,265.1667,265.1667,66.173,-18.897,-999.00,8.53,-999.0,no,yes,no,300234066215860,SVPGHI,AOML,UNKNOWN,North
2021-09-22T04:59:57Z,1632286797,2021,5,0,265.2083,265.2083,66.173,-18.896,-999.00,8.8,-999.0,no,yes,no,300234066215860,SVPGHI,AOML,UNKNOWN,North
2021-09-22T06:00:00Z,1632290400,2021,6,0,265.25,265.25,66.173,-18.897,-999.00,9.07,-999.0,no,yes,no,300234066215860,SVPGHI,AOML,UNKNOWN,North
2021-09-22T07:00:02Z,1632294003,2021,7,0,265.2917,265.2917,66.173,-18.897,-999.00,9.1,-999.0,no,yes,no,300234066215860,SVPGHI,AOML,UNKNOWN,North
2021-09-22T07:59:57Z,1632297597,2021,8,0,265.3333,265.3333,66.173,-18.897,-999.00,9.1,-999.0,no,yes,no,300234066215860,SVPGHI,AOML,UNKNOWN,North
2021-09-22T09:00:00Z,1632301200,2021,9,0,265.375,265.375,66.173,-18.897,-999.00,9.08,-999.0,no,yes,no,300234066215860,SVPGHI,AOML,UNKNOWN,North
2021-09-22T10:00:02Z,1632304803,2021,10,0,265.4167,265.4167,66.173,-18.897,-999.00,9.07,-999.0,no,yes,no,300234066215860,SVPGHI,AOML,UNKNOWN,North
2021-09-22T12:00:00Z,1632312000,2021,12,0,265.5,265.5,66.173,-18.897,-999.00,9.11,-999.0,no,yes,no,300234066215860,SVPGHI,AOML,UNKNOWN,North
2021-09-22T13:00:02Z,1632315603,2021,13,0,265.5417,265.5417,66.173,-18.897,-999.00,9.02,-999.0,no,yes,no,300234066215860,SVPGHI,AOML,UNKNOWN,North
2021-09-22T13:59:57Z,1632319197,2021,14,0,265.5833,265.5833,66.173,-18.897,-999.00,8.97,-999.0,no,yes,no,300234066215860,SVPGHI,AOML,UNKNOWN,North
2021-09-22T15:00:00Z,1632322800,2021,15,0,265.625,265.625,66.173,-18.897,-999.00,8.97,-999.0,no,yes,no,300234066215860,SVPGHI,AOML,UNKNOWN,North
2021-09-22T16:00:02Z,1632326403,2021,16,0,265.6667,265.6667,66.173,-18.897,-999.00,8.95,-999.0,no,yes,no,300234066215860,SVPGHI,AOML,UNKNOWN,North
2021-09-22T16:59:57Z,1632329997,2021,17,0,265.7083,265.7083,66.172,-18.894,-999.00,8.89,-999.0,no,yes,no,300234066215860,SVPGHI,AOML,UNKNOWN,North
2021-09-22T18:00:00Z,1632333600,2021,18,0,265.75,265.75,66.172,-18.896,-999.00,8.94,-999.0,no,yes,no,300234066215860,SVPGHI,AOML,UNKNOWN,North
2021-09-22T19:00:02Z,1632337203,2021,19,0,265.7917,265.7917,66.172,-18.897,-999.00,8.86,-999.0,no,yes,no,300234066215860,SVPGHI,AOML,UNKNOWN,North
2021-09-22T19:59:57Z,1632340797,2021,20,0,265.8333,265.8333,66.174,-18.895,-999.00,8.86,-999.0,no,yes,no,300234066215860,SVPGHI,AOML,UNKNOWN,North
2021-09-22T21:00:00Z,1632344400,2021,21,0,265.875,265.875,66.172,-18.897,-999.00,8.96,-999.0,no,yes,no,300234066215860,SVPGHI,AOML,UNKNOWN,North
2021-09-22T22:00:02Z,1632348003,2021,22,0,265.9167,265.9167,66.173,-18.897,-999.00,8.96,-999.0,no,yes,no,300234066215860,SVPGHI,AOML,UNKNOWN,North
2021-09-22T22:59:57Z,1632351597,2021,23,0,265.9583,265.9583,66.173,-18.897,-999.00,8.9,-999.0,no,yes,no,300234066215860,SVPGHI,AOML,UNKNOWN,North
2021-09-23T00:00:00Z,1632355200,2021,0,0,266.0,266.0,66.173,-18.897,-999.00,8.85,-999.0,no,yes,no,300234066215860,SVPGHI,AOML,UNKNOWN,North
2021-09-23T01:00:02Z,1632358803,2021,1,0,266.0417,266.0417,66.173,-18.897,-999.00,8.84,-999.0,no,yes,no,300234066215860,SVPGHI,AOML,UNKNOWN,North
2021-09-23T01:59:57Z,1632362397,2021,2,0,266.0833,266.0833,66.173,-18.898,-999.00,8.83,-999.0,no,yes,no,300234066215860,SVPGHI,AOML,UNKNOWN,North
2021-09-23T03:00:00Z,1632366000,2021,3,0,266.125,266.125,66.173,-18.899,-999.00,8.83,-999.0,no,yes,no,300234066215860,SVPGHI,AOML,UNKNOWN,North
2021-09-23T04:00:02Z,1632369603,2021,4,0,266.1667,266.1667,66.175,-18.898,-999.00,8.84,-999.0,no,yes,no,300234066215860,SVPGHI,AOML,UNKNOWN,North
2021-09-23T04:59:57Z,1632373197,2021,5,0,266.2083,266.2083,66.172,-18.898,-999.00,8.88,-999.0,no,yes,no,300234066215860,SVPGHI,AOML,UNKNOWN,North
2021-09-23T06:00:00Z,1632376800,2021,6,0,266.25,266.25,66.172,-18.898,-999.00,9.01,-999.0,no,yes,no,300234066215860,SVPGHI,AOML,UNKNOWN,North
2021-09-23T07:00:02Z,1632380403,2021,7,0,266.2917,266.2917,66.172,-18.896,-999.00,8.9,-999.0,no,yes,no,300234066215860,SVPGHI,AOML,UNKNOWN,North
2021-09-23T07:59:57Z,1632383997,2021,8,0,266.3333,266.3333,66.172,-18.898,-999.00,8.86,-999.0,no,yes,no,300234066215860,SVPGHI,AOML,UNKNOWN,North
2021-09-23T09:00:00Z,1632387600,2021,9,0,266.375,266.375,66.172,-18.898,-999.00,8.86,-999.0,no,yes,no,300234066215860,SVPGHI,AOML,UNKNOWN,North
2021-09-23T10:00:02Z,1632391203,2021,10,0,266.4167,266.4167,66.172,-18.898,-999.00,8.85,-999.0,no,yes,no,300234066215860,SVPGHI,AOML,UNKNOWN,North
2021-09-23T12:00:00Z,1632398400,2021,12,0,266.5,266.5,66.172,-18.898,-999.00,8.85,-999.0,no,yes,no,300234066215860,SVPGHI,AOML,UNKNOWN,North
2021-09-23T13:00:02Z,1632402003,2021,13,0,266.5417,266.5417,66.172,-18.898,-999.00,8.87,-999.0,no,yes,no,300234066215860,SVPGHI,AOML,UNKNOWN,North
2021-09-23T13:59:57Z,1632405597,2021,14,0,266.5833,266.5833,66.171,-18.899,-999.00,8.88,-999.0,no,yes,no,300234066215860,SVPGHI,AOML,UNKNOWN,North
2021-09-23T15:00:00Z,1632409200,2021,15,0,266.625,266.625,66.17,-18.901,-999.00,8.87,-999.0,no,yes,no,300234066215860,SVPGHI,AOML,UNKNOWN,North
2021-09-23T16:00:02Z,1632412803,2021,16,0,266.6667,266.6667,66.17,-18.9,-999.00,8.88,-999.0,no,yes,no,300234066215860,SVPGHI,AOML,UNKNOWN,North
2021-09-23T16:21:04Z,1632414064,2021,16,21,266.6813,266.6813,66.17,-18.901,-999.00,8.88,-999.0,no,yes,no,300234066215860,SVPGHI,AOML,UNKNOWN,North
2021-09-23T16:59:57Z,1632416397,2021,17,0,266.7083,266.7083,66.168,-18.892,-999.00,8.9,-999.0,no,yes,no,300234066215860,SVPGHI,AOML,UNKNOWN,North
